When you browse on this site, cookies collect data to enhance your experience and personalize the content and advertising you see.
Visit our Privacy Policy to learn more. By continuing to use the site, you agree to this use of cookies and data.
  • In Österreich
  • Länderverzeichnis
  • Für 7 Tage
  • Wassertemperatur
  • Satellitenkarten
  • Wetterkarte
  • News
  • Widgets
  • user-avatar
    Anmelden

    Stündliche Wetter Dziecioly

    Heute, 17 Dezember, Montag

    Zeit Temperatur Niederschläge Wind Luftdruck Luftfeuchtigkeit
    00:00 -5°C° 0 mm 3 m/S 751 mmHg 80%
    01:00 -4°C° 0 mm 3 m/S 751 mmHg 81%
    02:00 -4°C° 0 mm 3 m/S 751 mmHg 80%
    03:00 -4°C° 0 mm 3 m/S 751 mmHg 80%
    04:00 -4°C° 0 mm 3 m/S 751 mmHg 79%
    05:00 -3°C° 0 mm 2 m/S 751 mmHg 80%
    06:00 -3°C° 0 mm 2 m/S 751 mmHg 81%
    07:00 -4°C° 0 mm 2 m/S 751 mmHg 84%
    08:00 -3°C° 0 mm 2 m/S 752 mmHg 83%
    09:00 -3°C° 0 mm 2 m/S 752 mmHg 81%
    10:00 -3°C° 0 mm 2 m/S 752 mmHg 80%
    11:00 0°C° 0 mm 1 m/S 752 mmHg 78%
    12:00 0°C° 0 mm 1 m/S 753 mmHg 76%
    13:00 -2°C° 0 mm 2 m/S 753 mmHg 76%
    14:00 -2°C° 0 mm 2 m/S 753 mmHg 79%
    15:00 -1°C° 0 mm 1 m/S 753 mmHg 82%
    16:00 -1°C° 0 mm 1 m/S 754 mmHg 84%
    17:00 -1°C° 0 mm 1 m/S 754 mmHg 85%
    18:00 -1°C° 0 mm 1 m/S 755 mmHg 86%
    19:00 -1°C° 0 mm 1 m/S 755 mmHg 86%
    20:00 -1°C° 0 mm 1 m/S 755 mmHg 87%
    21:00 -1°C° 0 mm 1 m/S 756 mmHg 88%
    22:00 -3°C° 0 mm 2 m/S 756 mmHg 88%
    23:00 -3°C° 0 mm 2 m/S 756 mmHg 89%

    Morgen, 18 Dezember, Dienstag

    Zeit Temperatur Niederschläge Wind Luftdruck Luftfeuchtigkeit
    00:00 0°C° 0 mm 1 m/S 757 mmHg 90%
    01:00 0°C° 0 mm 1 m/S 757 mmHg 90%
    02:00 0°C° 0 mm 1 m/S 757 mmHg 91%
    03:00 0°C° 0 mm 1 m/S 757 mmHg 91%
    04:00 0°C° 0 mm 1 m/S 757 mmHg 91%
    05:00 0°C° 0 mm 1 m/S 757 mmHg 91%
    06:00 +1°C° 0 mm 1 m/S 757 mmHg 92%
    07:00 +1°C° 0 mm 1 m/S 757 mmHg 92%
    08:00 +1°C° 0 mm 1 m/S 757 mmHg 92%
    09:00 -1°C° 0 mm 2 m/S 758 mmHg 92%
    10:00 +1°C° 0 mm 2 m/S 758 mmHg 92%
    11:00 +1°C° 0 mm 2 m/S 758 mmHg 92%
    12:00 +1°C° 0 mm 2 m/S 758 mmHg 92%
    13:00 +1°C° 0 mm 2 m/S 758 mmHg 92%
    14:00 +1°C° 0 mm 2 m/S 758 mmHg 92%
    15:00 +2°C° 0 mm 1 m/S 758 mmHg 93%
    16:00 +2°C° 0 mm 1 m/S 758 mmHg 93%
    17:00 +2°C° 0 mm 1 m/S 758 mmHg 93%
    18:00 +1°C° 0 mm 1 m/S 758 mmHg 93%
    19:00 +1°C° 0 mm 1 m/S 758 mmHg 93%
    20:00 -1°C° 0 mm 2 m/S 758 mmHg 93%
    21:00 -1°C° 0 mm 2 m/S 758 mmHg 92%
    22:00 -1°C° 0 mm 2 m/S 757 mmHg 92%
    23:00 -1°C° 0 mm 2 m/S 757 mmHg 92%

    übermorgen, 19 Dezember, Mittwoch

    Zeit Temperatur Niederschläge Wind Luftdruck Luftfeuchtigkeit
    00:00 -1°C° 0 mm 2 m/S 757 mmHg 91%
    01:00 -1°C° 0 mm 2 m/S 757 mmHg 91%
    02:00 -2°C° 0 mm 3 m/S 757 mmHg 91%
    03:00 -2°C° 0 mm 3 m/S 757 mmHg 90%
    04:00 -2°C° 0 mm 3 m/S 756 mmHg 90%
    05:00 -3°C° 0 mm 4 m/S 756 mmHg 89%
    06:00 -3°C° 0 mm 4 m/S 756 mmHg 89%
    07:00 -3°C° 0 mm 4 m/S 756 mmHg 89%
    08:00 -3°C° 0 mm 4 m/S 756 mmHg 87%
    09:00 -4°C° 0 mm 5 m/S 756 mmHg 84%
    10:00 -2°C° 0 mm 5 m/S 756 mmHg 82%
    11:00 -2°C° 0 mm 5 m/S 755 mmHg 80%
    12:00 -1°C° 0 mm 5 m/S 755 mmHg 77%
    13:00 -1°C° 0 mm 4 m/S 754 mmHg 75%
    14:00 -1°C° 0 mm 4 m/S 754 mmHg 76%
    15:00 -2°C° 0 mm 4 m/S 754 mmHg 77%
    16:00 -2°C° 0 mm 4 m/S 754 mmHg 78%
    17:00 -2°C° 0 mm 4 m/S 753 mmHg 77%
    18:00 -2°C° 0 mm 4 m/S 753 mmHg 77%
    19:00 -2°C° 0 mm 4 m/S 753 mmHg 77%
    20:00 -2°C° 0 mm 4 m/S 753 mmHg 77%
    21:00 -2°C° 0 mm 5 m/S 753 mmHg 77%
    22:00 -4°C° 0 mm 5 m/S 753 mmHg 76%
    23:00 -2°C° 0 mm 4 m/S 752 mmHg 76%

    20 Dezember, Donnerstag

    Zeit Temperatur Niederschläge Wind Luftdruck Luftfeuchtigkeit
    00:00 -2°C° 0 mm 4 m/S 752 mmHg 76%
    01:00 -2°C° 0 mm 4 m/S 752 mmHg 76%
    02:00 -2°C° 0 mm 4 m/S 752 mmHg 75%
    03:00 -2°C° 0 mm 4 m/S 752 mmHg 75%
    04:00 -2°C° 0 mm 4 m/S 752 mmHg 75%
    05:00 -2°C° 0 mm 4 m/S 752 mmHg 74%
    06:00 -2°C° 0 mm 4 m/S 752 mmHg 74%
    07:00 -2°C° 0 mm 4 m/S 752 mmHg 74%
    08:00 -2°C° 0 mm 4 m/S 752 mmHg 73%
    09:00 -2°C° 0 mm 4 m/S 752 mmHg 73%
    10:00 -2°C° 0 mm 4 m/S 752 mmHg 72%
    11:00 -2°C° 0 mm 4 m/S 751 mmHg 72%
    12:00 -2°C° 0 mm 4 m/S 751 mmHg 72%
    13:00 -2°C° 0 mm 4 m/S 751 mmHg 73%
    14:00 -1°C° 0 mm 3 m/S 751 mmHg 75%
    15:00 -1°C° 0 mm 3 m/S 751 mmHg 77%
    16:00 -1°C° 0 mm 3 m/S 751 mmHg 79%
    17:00 -1°C° 0.1 mm 3 m/S 751 mmHg 81%
    18:00 -1°C° 0.1 mm 3 m/S 751 mmHg 83%
    19:00 -1°C° 0.1 mm 3 m/S 751 mmHg 85%
    20:00 -1°C° 0.2 mm 3 m/S 751 mmHg 87%
    21:00 -2°C° 0.2 mm 4 m/S 751 mmHg 89%
    22:00 -2°C° 0.2 mm 4 m/S 751 mmHg 92%
    23:00 -2°C° 0.1 mm 4 m/S 751 mmHg 92%

    21 Dezember, Freitag

    Zeit Temperatur Niederschläge Wind Luftdruck Luftfeuchtigkeit
    00:00 -2°C° 0.1 mm 4 m/S 751 mmHg 92%
    01:00 0°C° 0.1 mm 3 m/S 751 mmHg 92%
    02:00 -1°C° 0 mm 3 m/S 751 mmHg 92%
    03:00 -1°C° 0 mm 3 m/S 750 mmHg 92%
    04:00 -2°C° 0 mm 4 m/S 750 mmHg 92%
    05:00 -2°C° 0 mm 4 m/S 750 mmHg 92%
    06:00 -2°C° 0 mm 4 m/S 750 mmHg 92%
    07:00 -2°C° 0 mm 4 m/S 749 mmHg 92%
    08:00 -2°C° 0 mm 4 m/S 749 mmHg 90%
    09:00 -1°C° 0 mm 4 m/S 749 mmHg 89%
    10:00 -1°C° 0 mm 4 m/S 749 mmHg 88%
    11:00 0°C° 0 mm 4 m/S 748 mmHg 88%
    12:00 0°C° 0 mm 4 m/S 748 mmHg 88%
    13:00 0°C° 0 mm 4 m/S 747 mmHg 88%
    14:00 0°C° 0.1 mm 4 m/S 747 mmHg 88%
    15:00 0°C° 0.1 mm 4 m/S 746 mmHg 89%
    16:00 0°C° 0.1 mm 4 m/S 745 mmHg 89%
    17:00 0°C° 0.1 mm 5 m/S 745 mmHg 89%
    18:00 0°C° 0.1 mm 5 m/S 744 mmHg 89%
    19:00 0°C° 0.1 mm 5 m/S 743 mmHg 88%
    20:00 0°C° 0.9 mm 5 m/S 742 mmHg 89%
    21:00 0°C° 0.9 mm 5 m/S 742 mmHg 90%
    22:00 0°C° 0.9 mm 5 m/S 741 mmHg 90%
    23:00 +1°C° 0.8 mm 6 m/S 741 mmHg 90%

    22 Dezember, Samstag

    Zeit Temperatur Niederschläge Wind Luftdruck Luftfeuchtigkeit
    00:00 +2°C° 0.8 mm 6 m/S 740 mmHg 89%
    01:00 +2°C° 0.8 mm 7 m/S 740 mmHg 89%
    02:00 +3°C° 0.2 mm 7 m/S 740 mmHg 88%
    03:00 +3°C° 0.2 mm 7 m/S 740 mmHg 88%
    04:00 +3°C° 0.2 mm 7 m/S 740 mmHg 87%
    05:00 +3°C° 0.2 mm 7 m/S 741 mmHg 87%
    06:00 +3°C° 0.2 mm 7 m/S 741 mmHg 87%
    07:00 +2°C° 0.2 mm 7 m/S 741 mmHg 88%
    08:00 +3°C° 0.3 mm 6 m/S 741 mmHg 89%
    09:00 +3°C° 0.3 mm 6 m/S 741 mmHg 90%
    10:00 +3°C° 0.3 mm 6 m/S 741 mmHg 90%
    11:00 +3°C° 0.8 mm 6 m/S 741 mmHg 91%
    12:00 +3°C° 0.8 mm 6 m/S 741 mmHg 91%
    13:00 +3°C° 0.8 mm 6 m/S 740 mmHg 91%
    14:00 +3°C° 0.7 mm 6 m/S 741 mmHg 90%
    15:00 +4°C° 0.7 mm 7 m/S 741 mmHg 88%
    16:00 +4°C° 0.7 mm 7 m/S 741 mmHg 86%
    17:00 +4°C° 0.1 mm 7 m/S 742 mmHg 86%
    18:00 +4°C° 0.1 mm 7 m/S 742 mmHg 86%
    19:00 +4°C° 0.1 mm 7 m/S 743 mmHg 86%
    20:00 +4°C° 0.1 mm 7 m/S 743 mmHg 86%
    21:00 +4°C° 0.1 mm 7 m/S 744 mmHg 86%
    22:00 +4°C° 0.1 mm 7 m/S 744 mmHg 86%
    23:00 +3°C° 0.3 mm 6 m/S 745 mmHg 87%
    Mehr zeigen